TimeCDT,TemperatureF,Dew PointF,Humidity,Sea Level PressureIn,VisibilityMPH,Wind Direction,Wind SpeedMPH,Gust SpeedMPH,PrecipitationIn,Events,Conditions,WindDirDegrees,DateUTC
12:02 AM,34.0,30.9,89,30.28,3.0,NNE,5.8,-,N/A,,Overcast,30,2014-03-09 06:02:00
12:52 AM,34.0,30.0,85,30.32,4.0,NE,8.1,-,N/A,,Overcast,40,2014-03-09 06:52:00
1:08 AM,34.0,30.9,89,30.29,4.0,NE,6.9,-,N/A,,Overcast,40,2014-03-09 07:08:00
1:52 AM,33.1,30.0,89,30.32,4.0,ENE,5.8,-,N/A,,Overcast,60,2014-03-09 07:52:00
3:52 AM,33.1,30.0,89,30.32,4.0,NNE,6.9,-,N/A,,Overcast,20,2014-03-09 08:52:00
4:52 AM,33.1,30.0,89,30.31,4.0,Calm,Calm,-,N/A,,Overcast,0,2014-03-09 09:52:00
5:52 AM,32.0,28.9,88,30.32,4.0,Calm,Calm,-,N/A,,Overcast,0,2014-03-09 10:52:00
6:52 AM,32.0,28.9,88,30.32,4.0,Variable,3.5,-,N/A,,Overcast,0,2014-03-09 11:52:00
7:52 AM,32.0,28.0,85,30.32,2.5,Variable,4.6,-,N/A,,Overcast,0,2014-03-09 12:52:00
8:13 AM,32.0,28.9,88,30.28,3.0,South,8.1,-,N/A,,Overcast,180,2014-03-09 13:13:00
8:21 AM,32.0,28.9,88,30.28,2.5,South,10.4,-,N/A,,Overcast,170,2014-03-09 13:21:00
8:52 AM,32.0,30.0,92,30.32,2.5,South,9.2,-,N/A,,Overcast,170,2014-03-09 13:52:00
9:52 AM,33.1,30.0,89,30.35,2.5,Calm,Calm,-,N/A,,Overcast,0,2014-03-09 14:52:00
10:23 AM,33.1,30.0,89,30.31,3.0,SSW,6.9,-,N/A,,Overcast,210,2014-03-09 15:23:00
10:52 AM,34.0,30.9,89,30.34,3.0,SSE,6.9,-,N/A,,Overcast,160,2014-03-09 15:52:00
11:52 AM,37.9,33.1,83,30.32,4.0,South,6.9,-,N/A,,Haze,190,2014-03-09 16:52:00
12:04 PM,39.0,33.1,79,30.29,4.0,SW,5.8,-,N/A,,Haze,220,2014-03-09 17:04:00
12:52 PM,43.0,34.0,71,30.29,6.0,SSW,10.4,-,N/A,,Haze,210,2014-03-09 17:52:00
1:52 PM,46.9,35.1,63,30.27,8.0,SW,8.1,-,N/A,,Clear,220,2014-03-09 18:52:00
2:52 PM,50.0,33.1,52,30.21,10.0,SSW,9.2,-,N/A,,Clear,210,2014-03-09 19:52:00
3:52 PM,55.0,28.9,37,30.16,10.0,SW,13.8,-,N/A,,Clear,220,2014-03-09 20:52:00
4:52 PM,57.0,28.0,33,30.13,10.0,SW,9.2,-,N/A,,Clear,230,2014-03-09 21:52:00
5:52 PM,57.0,35.1,44,30.11,10.0,WSW,13.8,-,N/A,,Clear,240,2014-03-09 22:52:00
6:52 PM,53.1,39.9,61,30.10,10.0,WSW,8.1,-,N/A,,Clear,240,2014-03-09 23:52:00
7:52 PM,46.0,37.0,71,30.12,10.0,SW,6.9,-,N/A,,Clear,220,2014-03-10 00:52:00
8:52 PM,45.0,37.9,76,30.10,10.0,SW,5.8,-,N/A,,Clear,220,2014-03-10 01:52:00
9:52 PM,43.0,37.0,80,30.12,10.0,SSW,9.2,-,N/A,,Clear,210,2014-03-10 02:52:00
10:52 PM,44.1,39.0,82,30.12,7.0,SW,9.2,-,N/A,,Clear,220,2014-03-10 03:52:00
11:52 PM,44.1,39.9,85,30.09,6.0,SW,11.5,-,N/A,,Clear,220,2014-03-10 04:52:00
12:52 AM,41.0,37.9,89,30.08,5.0,SSW,10.4,-,N/A,,Clear,210,2014-03-10 05:52:00